Content
SEND FEEDBACK

Daily
Averages
Monthly
Summary
United States of America

BLACKLICK, OHIO


Home > North America > United States > Ohio
Elevation: 835 feet     Latitude: 40 00N     Longitude: 082 52W

WEATHER
 
SELECT A DAY
Number of Records: 206,090;   Date Range: 1/1/95 - 9/13/14
 
SHARE

PRINT THIS DATA

[ ← Previous Day ]
WEATHER ALMANAC - FEBRUARY 13, 2013
[ Next Day → ]
[ °C ]   °F
Weather ElementAverageHighLow
Temperature30.9 °F33.8 °F (2:24 pm)26.1 °F (11:51 pm)
Dewpoint26.7 °F28.9 °F (12:51 pm)24.1 °F (11:51 pm)
Humidity84.5 %93 % (12:01 pm)75 % (5:51 pm)
Barometer29.82 in29.91 in (10:51 pm)29.74 in (2:24 pm)
Wind Speed5.6 mph9.2 mph (1:51 am)
Weather ElementAverage
Visibility5.5 mi
Wind DirectionW (275.6 °)

Weather ElementTotal
Precipitation0.07 in
Heating Degree Days35.1 (Base 65)
Averaged from 32 records on February 13, 2013
WEATHER CONDITIONS BREAKOUT
WIND DIRECTION BREAKOUT
WEATHER BY HOUR - FEBRUARY 13, 2013
[ °C ]   °F
Local TimeTemperatureDewpointHumidityBarometerVisibilityWind DirectionWind SpeedGust SpeedPrecipitationEventsConditions
1:51 AM30.9 °F25.0 °F79 %29.90 in10.0 miNorth (360°)9.2 mphPartly Cloudy
2:51 AM30.9 °F25.0 °F79 %29.88 in10.0 miNorth (350°)5.8 mphScattered Clouds
3:51 AM30.0 °F26.1 °F85 %29.89 in10.0 miNorth (350°)3.5 mphMostly Cloudy
4:51 AM30.0 °F26.1 °F85 %29.87 in8.0 miNorth (350°)6.9 mphMostly Cloudy
5:51 AM28.9 °F26.1 °F89 %29.86 in7.0 miNorth (10°)3.5 mphOvercast
6:51 AM30.0 °F26.1 °F85 %29.83 in7.0 miNNE (20°)5.8 mphOvercast
7:51 AM30.0 °F26.1 °F85 %29.79 in6.0 miNorth (10°)6.9 mphOvercast
8:51 AM30.9 °F26.1 °F82 %29.81 in5.0 miNorth (350°)4.6 mphHaze
9:51 AM30.9 °F26.1 °F82 %29.83 in5.0 miNNW (330°)5.8 mphHaze
10:51 AM32.0 °F27.0 °F82 %29.83 in5.0 miNorth (350°)5.8 mphHaze
11:05 AM32.0 °F26.6 °F80 %29.81 in5.0 miNNW (340°)3.5 mphHaze
11:51 AM32.0 °F27.0 °F82 %29.82 in2.0 miNNW (340°)3.5 mph0.00 inSnowLight Snow
12:01 PM30.2 °F28.4 °F93 %29.79 in1.0 miNNW (330°)4.6 mph0.01 inSnowLight Snow
12:43 PM30.2 °F28.4 °F93 %29.77 in2.5 miNW (320°)6.9 mph0.03 inSnowLight Snow
12:51 PM30.9 °F28.9 °F92 %29.78 in2.5 miNW (320°)4.6 mph0.03 inSnowLight Snow
12:58 PM30.2 °F28.4 °F93 %29.75 in2.0 miNW (320°)4.6 mph0.00 inSnowLight Snow
1:13 PM30.2 °F28.4 °F93 %29.75 in4.0 miNW (310°)3.5 mph0.00 inSnowLight Snow
1:29 PM32.0 °F28.4 °F87 %29.75 in4.0 miNW (320°)6.9 mph0.00 inSnowLight Snow
1:41 PM32.0 °F28.4 °F87 %29.75 in4.0 miNNW (330°)4.6 mph0.00 inOvercast
1:51 PM32.0 °F28.0 °F85 %29.76 in6.0 miNNW (340°)6.9 mph0.00 inOvercast
2:24 PM33.8 °F28.4 °F81 %29.74 in5.0 miNW (320°)6.9 mphHaze
2:51 PM33.1 °F28.0 °F82 %29.77 in5.0 miNW (310°)8.1 mphHaze
3:51 PM33.1 °F27.0 °F78 %29.78 in5.0 miNW (320°)8.1 mphHaze
4:51 PM33.1 °F27.0 °F78 %29.79 in6.0 miNNW (340°)6.9 mphHaze
5:51 PM33.1 °F26.1 °F75 %29.81 in6.0 miWest (270°)5.8 mphHaze
5:58 PM33.8 °F26.6 °F75 %29.79 in6.0 miWest (280°)6.9 mphHaze
6:51 PM30.9 °F25.0 °F79 %29.84 in8.0 miWest (280°)4.6 mphMostly Cloudy
7:51 PM30.9 °F26.1 °F82 %29.87 in7.0 miWSW (240°)4.6 mphScattered Clouds
8:51 PM28.9 °F25.0 °F85 %29.87 in7.0 miSouth (180°)3.5 mphPartly Cloudy
9:51 PM28.0 °F25.0 °F88 %29.89 in5.0 miSouth (190°)5.8 mphPartly Cloudy
10:51 PM27.0 °F25.0 °F92 %29.91 in5.0 miSouth (180°)4.6 mphPartly Cloudy
11:51 PM26.1 °F24.1 °F92 %29.91 in4.0 miSSE (160°)6.9 mphPartly Cloudy
Hourly data recorded from KCMH, located miles away from Blacklick, Ohio







STORIES FROM OUR PARTNERS